COMPLETED DISPATCHED CALLS FOR SERVICE

Welcome to the Jacksonville Sheriff’s Office Completed Dispatched Calls for Service webpage. This page displays calls for service made to the Jacksonville Sheriff's Office that have recently been completed. The data on this page is refreshed automatically.

This information is not intended to be used as official crime data. This program does not provide information about all crimes, and excludes specific incidents such as sexual assaults and child abuse.

Disclaimer: The Jacksonville Sheriff's Office makes every effort to produce and publish current and accurate information. No warranties, expressed or implied, are provided for the data herein, its use, or its interpretation. The services provided are for informational purposes only and should not be relied on for any type of legal action.

Last refreshed 10/28 16:18:28

Incident # Dispatched Block Address Signal Call Description  
202100644704 10-28 14:20 3100 1ST ST W 1066 CANCEL
202100644677 10-28 14:02 4200 MONCRIEF RD 10 VEHICLE THEFT
202100644791 10-28 13:45 9700 OLD ST AUGUSTINE RD 63 DISPUTE
202100644811 10-28 13:44 4500 COLLINS RD 63 DISPUTE
202100644889 10-28 13:40 2300 PICKETTVILLE RD 4 AUTO CRASH
202100644886 10-28 13:39 1800 29TH ST W 76 ASSIST OTHER AGENCY
202100644885 10-28 13:37 UNION ST W / MADISON ST 1050 TRAFFIC STOP
202100644870 10-28 13:31 100 RIVERSIDE AVE 13 SUSPICIOUS PERSON
202100644797 10-28 13:29 800 BERT RD 73 DRUG INVESTIGATION
202100644865 10-28 13:29 COLLINS RD / BLANDING BLVD 16 ROAD OBSTRUCTION
202100644815 10-28 13:23 100 SHIRCLIFF WAY 96 ASSIST MOTORIST
202100644848 10-28 13:18 8000 HERLONG RD 16 ROAD OBSTRUCTION
202100644847 10-28 13:18 10500 MONACO DR 1050 TRAFFIC STOP
202100644835 10-28 13:15 12900 ATLANTIC BLVD 1066 CANCEL
202100644792 10-28 13:14 2700 PARK ST 63 DISPUTE
202100644803 10-28 13:08 6300 ANVIL RD 63 DISPUTE
202100644814 10-28 13:06 SAN PABLO/GREGS POINT 1050 TRAFFIC STOP
202100644777 10-28 13:02 2200 FOREST BLVD 9T THEFT (TELESERVE)
202100644793 10-28 13:00 9700 OLD ST AUGUSTINE RD 63 DISPUTE
202100644752 10-28 12:58 3800 DOTTIE RD 9T THEFT (TELESERVE)
202100010906 10-28 12:54 100 U N F DR 37 UNVERIFIED 911 CALL
202100644780 10-28 12:51 8000 NORMANDY BLVD 4 AUTO CRASH
202100644786 10-28 12:51 11000 FT CAROLINE RD 4 AUTO CRASH
202100644782 10-28 12:49 400 NEWNAN ST N 1050 TRAFFIC STOP
202100644477 10-28 12:47 6000 ROOSEVELT BLVD 22 DOMESTIC
202100644773 10-28 12:46 100 25TH ST W 63 DISPUTE
202100644771 10-28 12:44 I295 S OFF RAMP / BEACH BLVD 96 ASSIST MOTORIST
202100644761 10-28 12:42 5700 NORMANDY BLVD 16 ROAD OBSTRUCTION
202100644766 10-28 12:42 8800 LONE STAR RD 38 TRAFFIC ASSIGNMENT
202100644762 10-28 12:38 15400 LEM TURNER RD 16 ROAD OBSTRUCTION
202100644638 10-28 12:35 5000 BROADWAY AVE 37 UNVERIFIED 911 CALL
202100644713 10-28 12:34 9500 WALKER CIR 22 DOMESTIC
202100644754 10-28 12:34 12300 YELLOW BLUFF RD 50 FOUND/ABANDONED PROPERTY
202100644602 10-28 12:33 5400 COLLINS RD 63 DISPUTE
202100644749 10-28 12:31 10900 ATLANTIC BLVD 0 88J ARMED ASSAULT JUST OCCURRED
202100644745 10-28 12:31 2000 FOURAKER RD 29 WIRE DOWN
202100644743 10-28 12:29 MYRTLE AVE N / 8TH ST W 4 53 TRAFFIC CRASH PERSON INJURED
202100644485 10-28 12:28 7900 BLANDING BLVD 63 DISPUTE
202100644727 10-28 12:28 1700 DAVIS ST N 63 DISPUTE
202100644737 10-28 12:28 11000 PINE ESTATES RD E 63 DISPUTE
202100644742 10-28 12:27 JTB W OFF RAMP / SOUTHSIDE BLVD 4 AUTO CRASH
202100644741 10-28 12:27 1800 KERNAN BLVD N 1050 TRAFFIC STOP
202100644666 10-28 12:25 3600 UNIVERSITY BLVD S 88 ASSAULT
202100644732 10-28 12:25 MAIN ST N / PECAN PARK RD 96 ASSIST MOTORIST
202100644603 10-28 12:24 4400 CONFEDERATE POINT RD 22 DOMESTIC
202100644715 10-28 12:23 1000 13TH ST E 9T THEFT (TELESERVE)
202100644728 10-28 12:20 4200 PHILIPS HWY 1066 CANCEL
202100644724 10-28 12:20 6100 GAZEBO PARK PL S 4 AUTO CRASH
202100644511 10-28 12:19 1600 MARGARET ST 9 THEFT
202100644487 10-28 12:18 3100 POST ST 6388 DISPUTE WITH ASSAULT
202100644705 10-28 12:16 1900 PARENTAL HOME RD 63 DISPUTE
202100644664 10-28 12:14 900 LANE AVE S 63 DISPUTE
202100644720 10-28 12:13 5400 BLANDING BLVD 54 ILLEGALLY PARKED CAR
202182020748 10-28 12:12 MAYPORT RD / FLORIDA BLVD 91 TRAFFIC LIGHT/RR CROSSING MALFUNCTION
202100644706 10-28 12:12 ARNOLD RD / SOUTHSIDE BLVD 4 AUTO CRASH
202100644497 10-28 12:12 600 STOCKTON ST 63 DISPUTE
202100644283 10-28 12:09 I295 S ON RAMP / ST JOHNS BLUFF RD S 4 AUTO CRASH
202100644214 10-28 12:09 JTB W OFF RAMP / BELFORT RD 3 HIT AND RUN CRASH
202100644550 10-28 12:09 I95 N OFF RAMP / BOWDEN RD 4 AUTO CRASH
202100644298 10-28 12:09 JTB OFF RAMP / I295 N ON RAMP 4 AUTO CRASH
202100644241 10-28 12:09 JTB E OFF RAMP / I295 S ON RAMP 16 ROAD OBSTRUCTION
202100644208 10-28 12:09 I295 S OFF RAMP / BEACH BLVD 4 AUTO CRASH
202100644192 10-28 12:09 JTB W OFF RAMP / SOUTHSIDE BLVD 4 AUTO CRASH
202100644175 10-28 12:09 JTB W ON RAMP / BELFORT RD 4 AUTO CRASH
202100644155 10-28 12:09 I295 S WBWY OFF RAMP / I95 EXPY N 4 AUTO CRASH
202100644151 10-28 12:09 N I95EXIT OLDSTAUG RP / OLD ST AUGUSTINE RD 4 AUTO CRASH
202100644709 10-28 12:08 SAN JUAN AVE / LANE AVE S 4 53 TRAFFIC CRASH PERSON INJURED
202100644708 10-28 12:08 AIRPORT RD / I95 S OFF RAMP 13 SUSPICIOUS PERSON
202100644460 10-28 12:06 2200 ORCHARD ST 63 DISPUTE
202100644696 10-28 12:02 3900 UNIVERSITY BLVD S 4 AUTO CRASH
202100644514 10-28 12:02 6800 WILSON BLVD 63 DISPUTE
202100644653 10-28 12:02 400 8TH ST W 9 THEFT
202100644650 10-28 12:01 6000 ANVIL RD 21CT BURGLARY CONVEYANCE TELESERVE
202100644683 10-28 12:01 8200 PRINCETON SQUARE BLVD E 76 ASSIST OTHER AGENCY
202100644689 10-28 12:00 A C SKINNER PKWY / SOUTHSIDE BLVD 16 ROAD OBSTRUCTION
202100644669 10-28 11:59 5200 MONCRIEF RD W 2 63 DISPUTE IMPAIRED/INTOXICATED
202100644685 10-28 11:59 15800 RACHEL CREEK DR 1066 CANCEL
202182020747 10-28 11:57 1900 BLK SEMINOLE RD 54 ILLEGALLY PARKED CAR
202100644680 10-28 11:56 4700 SALISBURY RD 11 ABANDONED VEHICLE
202100644635 10-28 11:56 5700 BOWDEN RD 9J THEFT JUST OCCURRED
202100644679 10-28 11:56 7100 MERRILL RD 60 SUICIDE OR ATTEMPT
202100644681 10-28 11:55 UNIVERSITY BLVD W / POWERS AVE 1050 TRAFFIC STOP
202100644678 10-28 11:54 CECIL COMMERCE CENTER PKWY OFF RAMP / POW-MIA MEMORIAL PKWY 13 SUSPICIOUS PERSON
202192119976 10-28 11:54 5100 HOOD RD 86 LOST PROPERTY
202100644431 10-28 11:53 1500 LANE AVE S 22 DOMESTIC
202192119974 10-28 11:52 200 MILL ST W 17 PERSON DOWN OR SICK
202100644657 10-28 11:51 3700 UNIVERSITY CLUB BLVD 63 DISPUTE
202100644627 10-28 11:50 3700 ST JOHNS BLUFF RD S 63 DISPUTE
202100644642 10-28 11:46 ARGYLE FOREST BLVD / SHINDLER DR 4 AUTO CRASH
202100644618 10-28 11:44 DOWNING ST / JAMES ST 13 SUSPICIOUS PERSON
202100644646 10-28 11:43 13700 LAKE NEWMAN ST 16 ROAD OBSTRUCTION
202100644659 10-28 11:41 7200 GOLDEN WINGS RD 95 FRAUD/FORGED (CHECK, ID, RX)
202100644607 10-28 11:41 700 CESERY BLVD 63 DISPUTE
202100644648 10-28 11:39 ATLANTIC BLVD / SOUTHSIDE BLVD 4 AUTO CRASH
202100644652 10-28 11:39 100 BLK MATHEWS BRG W 96 ASSIST MOTORIST
202100644632 10-28 11:36 400 EDGEWOOD AVE S 4 AUTO CRASH
202100644634 10-28 11:32 100 MATHEWS BRG E 16 ROAD OBSTRUCTION
202100644636 10-28 11:31 I95 S OFF RAMP / AIRPORT RD 4 AUTO CRASH
202100644597 10-28 11:29 200 STATE ST E 4 AUTO CRASH
202100644628 10-28 11:27 13900 MAIN ST N 1050 TRAFFIC STOP
202100644604 10-28 11:22 10500 CONRAD DR 63 DISPUTE
202100644540 10-28 11:20 WOODBINE ST / SPRINGFIELD BLVD 22 DOMESTIC
202100644612 10-28 11:20 2400 BETHUNE AVE 60 SUICIDE OR ATTEMPT
202100644610 10-28 11:18 SUNBEAM RD / SAN JOSE BLVD 1066 CANCEL
202100644585 10-28 11:13 2400 LAMEE AVE 64 NOISE COMPLAINT
202100644494 10-28 11:12 1500 MT HERMAN ST 37 UNVERIFIED 911 CALL
202100644586 10-28 11:11 6200 PETTIFORD DR W 9T THEFT (TELESERVE)
202100644589 10-28 11:09 PHILIPS HWY / JTB 1050 TRAFFIC STOP
202100644576 10-28 11:06 5300 ARLINGTON RD 21C BURGLARY CONVEYANCE
202100644577 10-28 11:06 1100 LEE RD 63 DISPUTE
202100644563 10-28 11:06 4400 SOUTHSIDE BLVD 9 THEFT
202100644578 10-28 11:03 500 ADAMS ST W 17 PERSON DOWN OR SICK
202100644571 10-28 11:00 HAINES ST / 8TH ST E 4 53 TRAFFIC CRASH PERSON INJURED
202100644543 10-28 10:59 5400 DOLPHIN POINT BLVD 3 HIT AND RUN CRASH
202100644551 10-28 10:59 1700 BROOKVIEW DR S 63 DISPUTE
202100644562 10-28 10:57 I295 S OFF RAMP / GATE PKWY 60 SUICIDE OR ATTEMPT
202100644486 10-28 10:55 5300 CHANDLER BEND DR 63 DISPUTE
202100644507 10-28 10:54 5800 EDENFIELD RD 22 DOMESTIC
202100644554 10-28 10:52 10100 ROMAN LN 63 DISPUTE
202100644544 10-28 10:52 ELLA ST / HIRAM ST 4 AUTO CRASH
202100644547 10-28 10:52 1700 HIRAM ST 4 AUTO CRASH
202100644535 10-28 10:51 8300 WESTERN WAY 63 DISPUTE
202100644548 10-28 10:51 100 DAMES POINT BRG N 4 AUTO CRASH
202100644538 10-28 10:48 11100 SAN JOSE BLVD 9 THEFT
202100644476 10-28 10:47 8100 BAYMEADOWS WAY W 88 ASSAULT
202100644524 10-28 10:47 4400 TOUCHTON RD E 1066 CANCEL
202100644537 10-28 10:47 11500 BONNIE LAKES CT 4 AUTO CRASH
202182020745 10-28 10:47 MAYPORT RD / PLAZA 4 AUTO CRASH
202100644385 10-28 10:38 5800 UNIVERSITY BLVD W 63 DISPUTE
202100644515 10-28 10:37 1100 OAKLEY ST 22 DOMESTIC
202182020744 10-28 10:37 PLAZA / MAYPORT RD 13 SUSPICIOUS PERSON
202100644519 10-28 10:35 700 LIBERTY ST N 73 DRUG INVESTIGATION
202100644518 10-28 10:35 700 LIBERTY ST N 73 DRUG INVESTIGATION
202100644517 10-28 10:35 700 LIBERTY ST N 73 DRUG INVESTIGATION
202192119960 10-28 10:33 2300 18TH ST W 17 PERSON DOWN OR SICK
202100644509 10-28 10:31 14600 BREAKERS DR 63 DISPUTE
202100644439 10-28 10:31 11500 TORI LN 95ID IDENTITY THEFT
202100644512 10-28 10:31 BEACH BLVD / CENTRAL PKWY 4 AUTO CRASH
202100644510 10-28 10:30 3500 UNIVERSITY BLVD N 76 ASSIST OTHER AGENCY
202100644443 10-28 10:30 5100 BAYMEADOWS RD 63 DISPUTE
202100644500 10-28 10:28 PHILIPS HWY / I295 N OFF RAMP 16 ROAD OBSTRUCTION
202100644499 10-28 10:27 8500 FREE AVE 22 DOMESTIC
202100644496 10-28 10:25 800 CONE ST 12 RECKLESS DRIVER
202100644461 10-28 10:24 1300 BROAD ST N 27 MENTALLY ILL PERSON
202100644488 10-28 10:23 3400 PHILIPS HWY 4 AUTO CRASH
202100644490 10-28 10:23 BEACH BLVD / HUFFMAN BLVD 4 AUTO CRASH
202100644483 10-28 10:19 9700 IVEY RD 76 ASSIST OTHER AGENCY
202100644475 10-28 10:17 10300 SAN JOSE BLVD 16 ROAD OBSTRUCTION
202100644445 10-28 10:13 6800 103RD ST 63 DISPUTE
202100644466 10-28 10:12 11800 BEACH BLVD 5388 ASSAULT INVOLVING INJURY
202100644427 10-28 10:12 4300 CLINTON AVE 96 ASSIST MOTORIST
202100644464 10-28 10:11 38TH ST W / MAIN ST N 38 TRAFFIC ASSIGNMENT
202100644371 10-28 10:11 4100 ABSTON DR 19 ANIMAL INVESTIGATION
202100644444 10-28 10:10 BROAD ST N / 3RD ST W 4 AUTO CRASH
202100644458 10-28 10:08 5300 SHAD RD 95 FRAUD/FORGED (CHECK, ID, RX)
202100644438 10-28 10:08 10500 BAYMEADOWS RD 76 ASSIST OTHER AGENCY
202100644455 10-28 10:08 BEACH BLVD / UNIVERSITY BLVD S 4 AUTO CRASH
202100644454 10-28 10:07 2700 LANTANA LAKES DR W 22 DOMESTIC
202182020743 10-28 10:02 400 ATLANTIC BLVD 27 MENTALLY ILL PERSON
202100644447 10-28 10:01 NEW KINGS RD / 45TH ST W 1050 TRAFFIC STOP
202100644437 10-28 10:01 11300 BAYMEADOWS RD 4 AUTO CRASH
202100644395 10-28 10:01 1000 MAYNARD ST 21CT BURGLARY CONVEYANCE TELESERVE
202182020742 10-28 10:00 600 SHERRY DR 54 ILLEGALLY PARKED CAR
202100644442 10-28 10:00 CONE ST / BEAVER ST W 1050 TRAFFIC STOP
202100644441 10-28 10:00 I295 S OFF RAMP / TOWN CENTER PKWY 1050 TRAFFIC STOP
202100644409 10-28 09:59 700 CHURCH ST W 9 THEFT
202100644432 10-28 09:58 800 LANE AVE S 22 DOMESTIC
202100644424 10-28 09:52 11700 SAN JOSE BLVD 63 DISPUTE
202100644425 10-28 09:51 I295 N OFF RAMP / 103RD ST 52 ILLEGAL DUMPING
202100644410 10-28 09:50 12700 LANIER RD 63 DISPUTE
202100644415 10-28 09:48 1100 DUNN AVE 9J THEFT JUST OCCURRED
202100644399 10-28 09:48 I295 N OFF RAMP / BLANDING BLVD 4 AUTO CRASH
202100644418 10-28 09:47 700 N LIBERTY 73 DRUG INVESTIGATION
202100644417 10-28 09:47 BEAVER/ROBINSON 1050 TRAFFIC STOP
202100644413 10-28 09:45 300 BAILEY AVE 1066 CANCEL
202100644375 10-28 09:45 5300 SPRINGFIELD BLVD 63 DISPUTE
202100644407 10-28 09:43 6200 WILSON BLVD 4 AUTO CRASH
202100644402 10-28 09:40 13000 AUTUMN RIVER RD S 63 DISPUTE
202100644273 10-28 09:39 1300 SPRINKLE DR 50 FOUND/ABANDONED PROPERTY
202100644309 10-28 09:39 1200 PRIOLEOU ST 11 ABANDONED VEHICLE
202100644392 10-28 09:39 9700 MACARTHUR CT S 63 DISPUTE
202100644357 10-28 09:38 3700 TOLEDO RD 63 DISPUTE
202100644394 10-28 09:38 7700 POINT MEADOWS DR 2 63 DISPUTE IMPAIRED/INTOXICATED
202100644387 10-28 09:38 800 LANE AVE S 22 DOMESTIC
202100644258 10-28 09:38 1000 ARCO DR 63 DISPUTE
202100644396 10-28 09:37 6300 MORSE AVE 3 HIT AND RUN CRASH
202100644389 10-28 09:36 4800 DEER LAKE DR W 4 AUTO CRASH
202100644289 10-28 09:34 7000 COMMONWEALTH AVE 63 DISPUTE
202100644246 10-28 09:32 1500 ELLA ST 13 SUSPICIOUS PERSON
202100644373 10-28 09:30 100 ADAMS ST E 4 AUTO CRASH
202100644317 10-28 09:28 10000 CHESTER LAKE RD E 95ID IDENTITY THEFT
202100644370 10-28 09:27 100 HART BRG N 96 ASSIST MOTORIST
202100644307 10-28 09:26 2300 18TH ST W 76 ASSIST OTHER AGENCY
202100644271 10-28 09:25 1600 ARCADIA DR 21C BURGLARY CONVEYANCE
202100644369 10-28 09:24 1200 RIVERPLACE BLVD 63 DISPUTE
202100644365 10-28 09:22 I95 S OFF RAMP / DUNN AVE 4 53 TRAFFIC CRASH PERSON INJURED
202100644367 10-28 09:22 500 BAY ST E 95IDT IDENTITY THEFT TELESERVE
202100644360 10-28 09:21 4400 OCEAN ST 63 DISPUTE
202100644322 10-28 09:21 3100 EMERSON ST 4 AUTO CRASH
202100644364 10-28 09:21 4000 HODGES BLVD 38 TRAFFIC ASSIGNMENT
202100644318 10-28 09:21 7600 MAIN ST N 63 DISPUTE
202192119951 10-28 09:21 5100 HOOD RD 38 TRAFFIC ASSIGNMENT
202100644217 10-28 09:20 14200 BEACH BLVD 4 AUTO CRASH
202100644332 10-28 09:19 6700 WATOMA ST 21C BURGLARY CONVEYANCE
202100644348 10-28 09:18 9600 WOODLAND AVE 9 THEFT
202100644356 10-28 09:18 900 MAIN ST N 1050 TRAFFIC STOP
202100644301 10-28 09:17 I295 N ON RAMP / WILSON BLVD 4 AUTO CRASH
202100644287 10-28 09:16 7200 ROSE CREEK LN 10 VEHICLE THEFT
202100644270 10-28 09:16 1000 BULLS BAY HWY 10R VEHICLE THEFT RECOVERY
202100644352 10-28 09:15 4200 KINGSBURY STREET 7 DEAD PERSON
202192119950 10-28 09:13 6900 ALTAMA RD 0 88 ARMED ASSAULT
202100644340 10-28 09:13 600 MAIN ST N 63 DISPUTE
202100644319 10-28 09:13 100 LIBRARY RD 63 DISPUTE
202100644346 10-28 09:11 21ST ST E / MAIN ST N 5361 FIGHT INVOLVING INJURY
202100644329 10-28 09:11 4000 SAN JOSE BLVD 37 UNVERIFIED 911 CALL
202100010893 10-28 09:11 100 U N F DR 96 ASSIST MOTORIST
202100644336 10-28 09:10 200 STATE ST E 63 DISPUTE
202100644343 10-28 09:09 5500 COLLINS RD 10R VEHICLE THEFT RECOVERY
202100644320 10-28 09:07 BLANDING BLVD / PARK ST 4 AUTO CRASH
202100644331 10-28 09:07 1100 DUNN AVE 9T THEFT (TELESERVE)
202192119947 10-28 09:06 EMERSON ST / PHILIPS HWY 4 AUTO CRASH
202100644333 10-28 09:05 CASSAT AVE / NORMANDY BLVD 4 AUTO CRASH
202100644251 10-28 09:03 REGENCY SQUARE BLVD N / KENDALL DR 3 HIT AND RUN CRASH
202100644306 10-28 09:03 7300 ARGYLE FOREST BLVD 2288 DOMESTIC DISPUTE WITH/ASSAULT
202100644284 10-28 09:03 8000 MERRILL RD 4 AUTO CRASH
202100644327 10-28 09:02 13600 LYLE RD 13 SUSPICIOUS PERSON
202100644321 10-28 09:02 8700 103RD ST 63 DISPUTE
202100644303 10-28 09:02 7800 WILSON BLVD 14R VANDALISM RESIDENCE
202100644255 10-28 09:01 6700 COLLINS RD 9 THEFT
202100644225 10-28 09:00 3600 ST AUGUSTINE RD 3 HIT AND RUN CRASH
202100644315 10-28 09:00 I295 N OFF RAMP / COLLINS RD 4 53 TRAFFIC CRASH PERSON INJURED
202100644177 10-28 08:59 I295 EXPY N / SR9B EXPY N 4 AUTO CRASH
202100644300 10-28 08:58 SUMMER BREEZE DR E / INDIGO RUN DR 13 SUSPICIOUS PERSON
202100644167 10-28 08:57 NORMANDY BLVD / HERLONG RD 4 AUTO CRASH
202100644285 10-28 08:51 NEW KINGS RD / DUNN AVE 29 WIRE DOWN
202100644296 10-28 08:50 4400 ROOSEVELT BLVD 1066 CANCEL
202100644272 10-28 08:49 SOUTHSIDE BLVD / BAYMEADOWS RD 16 ROAD OBSTRUCTION
202100644236 10-28 08:45 1000 AIRPORT RD 10 VEHICLE THEFT
202100644279 10-28 08:45 NORMANDY BLVD / CHAFFEE RD S 4 AUTO CRASH
202100644194 10-28 08:44 ORIOLE ST / ROWE AVE 4 AUTO CRASH
202100644286 10-28 08:41 HOLLINGS ST / EUBANKS ST E 1050 TRAFFIC STOP
202100644281 10-28 08:41 900 LASALLE ST 5388 ASSAULT INVOLVING INJURY
202100644266 10-28 08:41 100 JULIA ST N 68 CON GAME/FLIM FLAM
202100644276 10-28 08:40 100 FULLER WARREN BRG S 16 ROAD OBSTRUCTION
202100644254 10-28 08:36 4TH ST E / MARKET ST N 16 ROAD OBSTRUCTION
202100644200 10-28 08:36 5200 MONCRIEF RD W 63 DISPUTE
202100644267 10-28 08:36 11400 SIMMONS RD 95IDT IDENTITY THEFT TELESERVE
202100644165 10-28 08:35 I10 EXPY 4 AUTO CRASH
202100644134 10-28 08:35 I295 S ON RAMP / ROOSEVELT BLVD 3 HIT AND RUN CRASH
202100644223 10-28 08:34 5500 UNIVERSITY CLUB BLVD N 95ID IDENTITY THEFT
202100644240 10-28 08:34 ATLANTIC BLVD / BEACH BLVD 16 ROAD OBSTRUCTION
202100644269 10-28 08:32 DUNN CREEK RD / ELMAR RD 1050 TRAFFIC STOP
202100644221 10-28 08:29 1200 30TH ST W 63 DISPUTE
202100644263 10-28 08:28 MYRTLE AVE N / 27TH ST W 1050 TRAFFIC STOP
202100644260 10-28 08:28 100 FULLER WARREN 96 ASSIST MOTORIST
202100644222 10-28 08:28 200 DEVOE ST 22 DOMESTIC
202100644197 10-28 08:27 I295 S OFF RAMP / BEACH BLVD 4 AUTO CRASH
202100644247 10-28 08:26 BLANEXIT RSVLT RP / ROOSEVELT BLVD 16 ROAD OBSTRUCTION
202100644253 10-28 08:24 10500 ATLANTIC BLVD 13 SUSPICIOUS PERSON
202100644249 10-28 08:21 8000 103RD ST 22 DOMESTIC
202100644158 10-28 08:18 JTB E OFF RAMP / SAN PABLO RD S 4 AUTO CRASH
202100644243 10-28 08:18 LANE AVE S / RAMONA BLVD 35 OFFICER NEEDS ASSIST
202100644242 10-28 08:17 12000 COLLINS CREEK DR 38 TRAFFIC ASSIGNMENT
202100644239 10-28 08:16 HART EXPY / ARTMSMEXIT HARTX RP 16 ROAD OBSTRUCTION
202100644230 10-28 08:14 14000 LUNAR DR 63 DISPUTE
202100644168 10-28 08:14 6900 LENOX AVE 9 THEFT
202100644226 10-28 08:14 6400 MORSE AVE 4 AUTO CRASH
202100644154 10-28 08:14 5500 COMMERCE ST 21C BURGLARY CONVEYANCE
202100644228 10-28 08:12 1500 SPRINKLE DR 4 AUTO CRASH
202100644203 10-28 08:11 I95 S ON RAMP / AIRPORT RD 19 ANIMAL INVESTIGATION
202100644227 10-28 08:11 1200 RIVERPLACE BLVD 63 DISPUTE
202100644198 10-28 08:09 100 FULLER WARREN BRG N 1066 CANCEL
202100644219 10-28 08:05 3300 EVERGREEN AVE 1066 CANCEL
202100644212 10-28 08:01 DUNN AVE / I95 N OFF RAMP 4 AUTO CRASH
202182020737 10-28 08:01 300 SHERRY DR 38 TRAFFIC ASSIGNMENT
202100644150 10-28 08:00 SHAD RD / FLORIDA MINING BLVD E 4 AUTO CRASH
202100644210 10-28 07:58 500 STOCKTON ST 9T THEFT (TELESERVE)
202100644205 10-28 07:57 11200 BAPTIST HEALTH DR 35 OFFICER NEEDS ASSIST
202100644206 10-28 07:57 SOUTEL DR / GIBSON AVE 4 53 TRAFFIC CRASH PERSON INJURED
202100644201 10-28 07:55 ARGYLE FOREST BLVD / CROSS TIMBERS DR W 4 53 TRAFFIC CRASH PERSON INJURED
202100644204 10-28 07:55 1600 FLAGLER AVE 4 AUTO CRASH
202100644202 10-28 07:54 I295 N WBWY ON RAMP / I95 N OFF RAMP 4 AUTO CRASH
202192119936 10-28 07:54 SOUTEL DR / GIBSON AVE 76 ASSIST OTHER AGENCY
202100644184 10-28 07:52 ATLANTIC BLVD / ST ELMO DR 4 AUTO CRASH
202100644176 10-28 07:51 1100 CALIENTE DR 63 DISPUTE
202100644171 10-28 07:51 HENDRICKS AVE / MITCHELL AVE 3 HIT AND RUN CRASH
202100644193 10-28 07:51 13200 VANTAGE WAY 4 AUTO CRASH
202100644181 10-28 07:50 800 BERT RD 22 DOMESTIC
202100644145 10-28 07:49 9100 BAYMEADOWS RD 4 AUTO CRASH
202100644159 10-28 07:49 ARLINGTON RD / ROGERO RD 4 AUTO CRASH
202100644190 10-28 07:49 MONUMENT RD / MCCORMICK RD 16 ROAD OBSTRUCTION
202100644153 10-28 07:48 MERRILL RD / ROGERO RD 4 AUTO CRASH
202182020736 10-28 07:48 300 SHERRY DR 38 TRAFFIC ASSIGNMENT
202100644186 10-28 07:46 11200 BEACH BLVD 0 13 ARMED SUSPICIOUS PERSON
202100644187 10-28 07:45 500 BUSCH DR 96 ASSIST MOTORIST
202100644128 10-28 07:45 1500 32ND ST W 22 DOMESTIC
202100644173 10-28 07:42 400 PECAN PARK RD 68 CON GAME/FLIM FLAM
202192119935 10-28 07:39 3200 NORMAN E THAGARD BLVD 38 TRAFFIC ASSIGNMENT
202100644162 10-28 07:36 600 ASHLEY ST W 6388 DISPUTE WITH ASSAULT
202100644121 10-28 07:33 600 BEAVER ST W 63 DISPUTE
202100644160 10-28 07:33 1200 UNIVERSITY BLVD N 38 TRAFFIC ASSIGNMENT
202100644047 10-28 07:32 7500 POWERS AVE 63 DISPUTE
202100644157 10-28 07:32 5100 SPRING GLEN RD 38 TRAFFIC ASSIGNMENT
202100644152 10-28 07:31 1900 PARENTAL HOME RD 76 ASSIST OTHER AGENCY
202100644156 10-28 07:31 1000 AIRPORT RD 1050 TRAFFIC STOP
202100644148 10-28 07:29 10900 AVENUES WALK BLVD 4 53 TRAFFIC CRASH PERSON INJURED
202100644108 10-28 07:29 KINKAID RD / 103RD ST 13 SUSPICIOUS PERSON
202100644147 10-28 07:28 2200 KERNAN BLVD S 38 TRAFFIC ASSIGNMENT
202100644143 10-28 07:27 10600 HORNETS NEST RD 38 TRAFFIC ASSIGNMENT
202100644137 10-28 07:25 OLDFIELD CROSSING DR / OLD ST AUGUSTINE RD 76 ASSIST OTHER AGENCY
202100644099 10-28 07:25 1800 DAVIS ST N 9J THEFT JUST OCCURRED
202100644142 10-28 07:24 I295 N ON RAMP / MONUMENT RD 4 AUTO CRASH
202100644138 10-28 07:23 FOURAKER RD / SPRINGTREE RD 1050 TRAFFIC STOP
202100644136 10-28 07:23 I295 N OFF RAMP / SAN JOSE BLVD 4 53 TRAFFIC CRASH PERSON INJURED
202100644118 10-28 07:20 6800 ROOSEVELT BLVD 4 AUTO CRASH
202100644125 10-28 07:15 US90 HWY E / MURRAY ST N 4 AUTO CRASH
202100644124 10-28 07:14 I95 N ON RAMP / PHILIPS HWY 16 ROAD OBSTRUCTION
202192119933 10-28 07:13 5500 FIRESTONE RD 38 TRAFFIC ASSIGNMENT
202100644115 10-28 07:09 FT CAROLINE RD / HOLLY OAKS LAKE RD E 4 AUTO CRASH
202100644119 10-28 07:09 ATLANTIC BLVD / ST JOHNS BLUFF RD N 1050 TRAFFIC STOP
202100644114 10-28 07:08 6100 ARLINGTON EXPY 21C BURGLARY CONVEYANCE
202100644117 10-28 07:08 1100 AIRPORT RD 1050 TRAFFIC STOP
202100644116 10-28 07:08 HENDRICKS AVE / SHERIDAN ST 1050 TRAFFIC STOP
202100644113 10-28 07:06 1000 AIRPORT RD 13 SUSPICIOUS PERSON
202100644112 10-28 07:06 SOUTHSIDE BLVD / WALLACE DEVIL BLVD 4 AUTO CRASH
202100644111 10-28 07:05 15700 MAX LEGGETT PKWY 1066 CANCEL
202100644106 10-28 07:01 ROOSEVELT BLVD / VERONA AVE 4 53 TRAFFIC CRASH PERSON INJURED
202100644084 10-28 06:56 5600 SHADY PINE ST N 37 UNVERIFIED 911 CALL
202100644095 10-28 06:55 12200 MARBON ESTATES LN W 22 DOMESTIC
202100644094 10-28 06:55 103RD ST / POW-MIA MEMORIAL PKWY 16 ROAD OBSTRUCTION
202100644092 10-28 06:53 OAKLEAF PLANTATION PKWY / CECIL COMMERCE CENTER PKWY OFF RAM 4 AUTO CRASH
202100644091 10-28 06:48 1000 AIRPORT RD 1050 TRAFFIC STOP
202100644069 10-28 06:47 200 9TH ST W 10 VEHICLE THEFT
202100644088 10-28 06:47 WASHINGTON AVE / CLYDE ST 1050 TRAFFIC STOP
202100644083 10-28 06:45 NORMANDY BLVD / PATRIOT RIDGE RD 4 53 TRAFFIC CRASH PERSON INJURED
202100644057 10-28 06:43 COMET ST / LUNA ST 13 SUSPICIOUS PERSON
202100644080 10-28 06:42 10700 PLUM HOLLOW DR 88 ASSAULT
202100644030 10-28 06:41 800 PRUDENTIAL DR 60 SUICIDE OR ATTEMPT
202100644073 10-28 06:35 4400 BARNES RD 38 TRAFFIC ASSIGNMENT
202100644067 10-28 06:35 11000 COPPER HILL DR 16 ROAD OBSTRUCTION
202100644072 10-28 06:34 500 ADAMS ST E 17 PERSON DOWN OR SICK
202100644066 10-28 06:30 AIRPORT RD / DUVAL RD 1050 TRAFFIC STOP
202100644048 10-28 06:27 1000 WATER ST 63 DISPUTE
202100644064 10-28 06:25 9000 LEM TURNER RD 1050 TRAFFIC STOP
202100644055 10-28 06:22 11100 SAN JOSE BLVD 27 MENTALLY ILL PERSON
202100644062 10-28 06:19 13500 OLD ST AUGUSTINE RD 38 TRAFFIC ASSIGNMENT
202100644060 10-28 06:18 BEACH BLVD / HODGES BLVD 38 TRAFFIC ASSIGNMENT
202100644045 10-28 06:14 4100 LENOX AVE 4 AUTO CRASH
202100644049 10-28 06:08 I95 N ON RAMP / UNIVERSITY BLVD W 1050 TRAFFIC STOP
202100644041 10-28 06:07 5700 COMMONWEALTH AVE 54 ILLEGALLY PARKED CAR
202100644046 10-28 06:05 I295 WBWY S OFF RAMP / I95 S ON RAMP 1050 TRAFFIC STOP
202100644044 10-28 06:04 I295 N OFF RAMP / PHILIPS HWY 1050 TRAFFIC STOP
202100644014 10-28 06:03 4800 DONCASTER AVE 63 DISPUTE
202100644040 10-28 06:01 10100 NEW BERLIN RD 4 AUTO CRASH
202100644038 10-28 05:58 KINGS RD / MYRTLE AVE N 60 SUICIDE OR ATTEMPT
202100644035 10-28 05:56 5600 EDENFIELD RD 76 ASSIST OTHER AGENCY
202100644036 10-28 05:56 1700 LEONID RD 1050 TRAFFIC STOP
202100644032 10-28 05:51 I10 E OFF RAMP / I295 S ON RAMP 4 53 TRAFFIC CRASH PERSON INJURED
202100644028 10-28 05:49 NEW KINGS RD / I295 N OFF RAMP 16 ROAD OBSTRUCTION
202100644011 10-28 05:41 1000 9TH ST E 21R BURGLARY RESIDENCE
202100644001 10-28 05:40 400 22ND ST W 22 DOMESTIC
202100644008 10-28 05:39 11600 OAKLAWN RD 63 DISPUTE
202100644027 10-28 05:37 3500 SANDBURG RD 76 ASSIST OTHER AGENCY
202100644010 10-28 05:36 2500 SPRINGMONT ST 64 NOISE COMPLAINT
202100644024 10-28 05:35 I295 S OFF RAMP / MONUMENT RD 1050 TRAFFIC STOP
202100643980 10-28 05:32 100 65TH ST W 10 VEHICLE THEFT
202100643989 10-28 05:29 2000 FRANKLIN ST 2288 DOMESTIC DISPUTE WITH/ASSAULT
202100644016 10-28 05:29 ARBOR LAKE DR / HARBOUR COVE DR S 13 SUSPICIOUS PERSON
202100644019 10-28 05:29 COLLINS RD / PARRAMORE RD 1050 TRAFFIC STOP
202100644018 10-28 05:26 LEM TURNER RD / TROUT RIVER BLVD 76 ASSIST OTHER AGENCY
202100644000 10-28 04:40 I95 EXPY S / TROUT RIVER BRG S 1050 TRAFFIC STOP
202100643994 10-28 04:39 5500 AUBURN RD 2288 DOMESTIC DISPUTE WITH/ASSAULT
202100643997 10-28 04:39 4200 SANTEE RD 63 DISPUTE
202100643999 10-28 04:38 PHILIPS HWY / BOWDENDALE AVE 13 SUSPICIOUS PERSON
202100643992 10-28 04:31 9900 ATRIUM WAY 27 MENTALLY ILL PERSON
202100643991 10-28 04:30 6100 FT CAROLINE RD 27 MENTALLY ILL PERSON
202100643990 10-28 04:30 6700 COLLINS RD 63 DISPUTE
202182020735 10-28 04:29 400 BLK SEMINOLE RD 16 ROAD OBSTRUCTION
202100643987 10-28 04:28 2200 CYPRESS LANDING DR 63 DISPUTE
202182020734 10-28 04:27 800 SEMINOLE RD 77 WELL BEING CHECK
202100643985 10-28 04:20 5500 UNIVERSITY CLUB BLVD N 13 SUSPICIOUS PERSON
202100643983 10-28 04:18 4100 PHILIPS HWY 64 NOISE COMPLAINT
202100643974 10-28 04:15 8300 DIX ELLIS TRL 2 63 DISPUTE IMPAIRED/INTOXICATED
202100643981 10-28 04:13 BEACH BLVD / GROVE PARK BLVD 13 SUSPICIOUS PERSON
202100643977 10-28 04:07 500 ADAMS ST E 14CP VANDALISM CONVEYANCE IN PROGRESS
202100643972 10-28 04:06 5100 ANDREWS ST 22 DOMESTIC